User: anonymous   Login
Location: State Camp
(41.2367°N, 77.7828°W)
Time: 19:48:29
(UTC-04:00)
Language:

ADEOS Rocket - Orbit

View from above orbital plane
View from above orbital plane
View from above satellite
View from above satellite

Ground track
Ground track

The orbit data is extracted from the following two-line orbital elements,

1 24279U 96046C   16274.50746277  .00000010  00000-0  59625-4 0  9999
2 24279  98.7146 245.0269 0299189 230.7578 239.7916 13.47058525989282
Epoch (UTC): 30 September 2016 12:10:44
Eccentricity: 0.0299189
inclination: 98.7146°
perigee height: 860 km
apogee height: 1306 km
right ascension of ascending node: 245.0269°
argument of perigee: 230.7578°
revolutions per day: 13.47058525
mean anomaly at epoch: 239.7916°
orbit number at epoch: 98928

The dashed part of the orbit path shows where the satellite is in the earth's shadow,  

DLR